Location: Unspecified
(0.0000°N, 0.0000°E)
Time: 14:05:22
(UTC+00:00)

FALCON 9 R/B - Pass Details

Date: 02 November 2020
Orbit: 485 x 62261 km, 25.4° (Epoch: 27 November)

Event Time Altitude Azimuth Distance (km) Brightness Sun altitude
Rises 00:47:42 0° 67° (ENE) 61,977 ? -68.3°
Reaches altitude 10° 01:43:25 10° 67° (ENE) 63,709 ? -56.9°
Maximum altitude 08:05:23 72° 354° (N) 56,608 ? 34.1°
Drops below altitude 10° 14:27:27 10° 148° (SSE) 4,121 ? 46.8°
Sets 14:29:27 0° 139° (SE) 4,446 ? 46.4°
